Temperature
18 18 19 18 18 18 18 18 18 18 18 18 18 18 18 18 18 18 18 18 18 18 18 18 18 18 18 18 18 18 17 17 17 17 17 17 17 17 17 17 17 17 17
18 18 18 18 18 18 18 18 18 18 18 18 18 18 18 18 18 18 18 18 18 18 18 18 18 18 18 18 18 18 18 17 17 17 17 17 17 17 17 17 17 17 17
18 18 18 18 18 18 18 18 18 18 18 18 18 18 18 18 18 18 18 18 18 18 18 18 18 18 18 18 18 18 18 17 17 17 17 17 17 17 17 17 17 17 17
18 18 18 18 18 18 18 18 18 18 18 18 18 18 18 18 18 18 18 18 18 18 18 18 18 18 18 18 18 18 18 17 17 17 17 17 17 17 17 17 17 17 17
18 18 18 18 18 18 18 18 18 18 18 18 18 18 18 18 18 18 18 18 18 18 18 18 18 18 18 18 18 18 17 17 17 17 17 17 17 17 17 17 17 17 17
18 18 18 18 18 18 18 18 18 18 18 18 18 18 18 18 18 18 18 18 18 18 18 17 17 17 18 18 18 18 17 17 17 17 17 17 17 17 17 17 17 17 17
18 18 18 18 18 18 18 18 18 18 18 18 18 18 18 18 18 18 18 18 17 17 17 17 17 17 17 18 18 18 17 17 17 17 17 17 17 17 17 17 17 17 16
18 18 18 18 18 18 18 18 18 18 18 18 18 18 19 19 18 18 18 17 17 17 17 17 17 17 17 17 17 17 17 17 17 17 17 17 17 17 17 17 16 16 16
18 18 18 18 18 17 18 18 18 17 18 17 17 18 19 19 19 18 17 17 17 17 17 17 17 17 17 17 17 17 17 17 17 17 17 17 17 17 17 17 16 16 16
18 18 18 18 18 17 17 17 17 17 17 18 17 17 17 17 18 19 18 18 17 17 17 17 17 17 17 17 17 17 17 17 17 17 17 17 17 17 17 17 17 16 16
18 18 18 18 18 17 17 17 17 17 17 17 17 17 17 17 18 18 18 18 18 17 17 17 17 17 17 16 16 17 17 17 17 17 17 17 17 17 17 16 16 16 16
18 18 18 18 17 17 17 17 17 17 17 17 17 17 17 17 18 18 18 18 18 17 17 16 16 16 16 16 16 16 16 17 17 17 17 17 17 16 16 16 16 16 16
17 18 17 17 17 17 17 17 16 16 16 16 16 16 17 17 17 17 17 17 17 17 17 17 16 16 16 16 16 16 16 16 16 16 16 16 16 16 16 16 16 16 16
17 17 17 17 17 17 16 17 16 16 16 16 16 16 16 16 16 16 16 17 17 17 17 17 16 16 16 16 16 16 16 16 16 16 16 16 16 16 16 16 16 16 16
17 17 17 17 17 17 16 16 16 16 16 16 16 16 16 16 16 16 16 16 16 17 17 16 16 16 16 15 15 15 15 15 16 16 16 16 15 15 15 15 15 15 15
17 17 17 16 16 16 16 16 16 15 15 15 15 15 15 15 15 15 15 15 16 16 16 16 16 16 15 15 15 15 15 15 15 15 15 15 15 15 15 15 15 15 15
17 17 16 16 16 16 16 16 15 15 15 15 15 15 15 15 15 15 15 15 15 15 15 16 15 15 15 15 15 15 15 15 15 15 15 15 15 15 15 15 15 15 15
17 16 16 16 16 15 15 15 15 15 15 15 15 15 15 15 14 14 14 14 15 14 15 15 15 15 15 14 14 14 14 14 14 15 15 15 15 15 14 14 14 14 14
17 16 16 16 15 15 15 15 15 15 15 14 14 14 14 14 14 14 14 14 14 14 14 14 14 14 14 14 14 14 14 14 14 14 14 14 14 14 14 14 14 14 14
17 16 16 16 15 15 15 15 15 15 14 14 14 14 14 14 14 14 14 14 14 14 14 14 14 14 14 14 14 14 14 14 14 14 14 14 14 14 14 14 14 14 14
16 16 16 15 15 15 15 15 15 14 14 14 14 14 14 14 14 14 14 14 13 13 14 14 14 14 14 14 14 14 14 14 14 14 13 13 13 13 13 13 13 13 13
16 16 15 15 15 15 15 15 15 14 14 14 14 14 14 14 14 14 14 13 13 13 13 13 13 13 13 13 13 13 13 13 13 13 13 13 13 13 13 13 13 13 13
16 15 15 15 15 15 15 15 14 14 14 14 14 13 13 13 13 13 13 13 13 13 13 13 13 13 13 12 12 12 12 12 13 13 12 13 13 13 13 13 13 13 13
15 15 15 14 14 14 14 14 14 14 14 13 13 13 13 13 13 13 13 13 13 13 13 12 12 12 12 12 12 12 12 12 12 12 12 12 13 13 13 12 12 12 13
15 14 14 14 14 14 14 14 14 13 13 13 13 13 13 13 13 13 12 12 12 12 12 12 12 12 12 12 12 12 12 12 12 12 12 12 12 12 12 12 12 12 12
14 14 14 14 14 14 14 14 14 13 13 13 13 13 13 13 12 12 12 12 12 12 12 12 12 12 12 12 12 12 12 12 12 12 12 12 12 12 12 12 12 12 12
Wind_Speed
1 1 1 1 2 1 0 1 1 1 2 2 2 2 2 3 3 3 3 7 8 8 8 8 9 10 11 12 12 12 12 12 12 11 12 12 12 11 11 11 11 12 11
1 1 1 1 1 1 1 1 0 0 1 1 1 1 2 2 2 2 3 6 8 8 8 8 9 9 11 11 12 12 13 13 13 12 12 12 12 12 12 12 12 12 12
1 1 1 1 2 2 1 0 0 0 0 1 1 1 1 1 1 2 2 2 5 7 7 7 8 10 11 12 12 12 12 12 12 13 13 13 13 13 13 13 13 12 12
2 1 2 2 2 2 1 1 1 0 0 0 1 1 1 1 2 2 2 2 2 3 6 7 7 8 10 10 11 11 11 11 11 12 13 13 14 13 13 13 13 12 12
1 1 2 2 2 1 2 2 2 1 0 0 1 1 1 1 2 2 1 2 2 2 2 6 7 7 7 8 9 11 11 11 11 10 11 12 13 13 13 13 13 13 13
1 2 1 1 2 1 1 1 1 1 0 1 1 1 1 1 1 1 2 2 2 2 2 3 5 7 8 8 8 8 9 9 10 10 10 10 11 12 13 13 13 13 12
1 1 1 1 2 1 2 2 1 0 0 0 1 1 2 2 2 1 1 1 1 2 2 2 3 3 6 9 8 7 7 8 8 8 9 9 10 11 12 13 13 12 12
1 1 1 1 1 1 1 2 2 1 1 0 1 1 1 2 2 2 2 2 2 2 2 3 3 3 3 4 6 9 8 8 8 8 9 9 9 9 11 12 13 13 13
0 1 1 2 2 2 1 1 2 1 1 1 1 2 1 0 0 2 1 1 1 2 3 3 4 4 4 4 4 8 9 8 8 8 9 9 9 9 10 11 12 13 13
0 0 1 1 2 1 1 1 2 2 2 1 0 1 2 2 2 1 2 2 2 2 2 2 3 4 4 5 4 3 6 7 8 8 8 9 9 9 9 10 10 11 12
1 0 0 1 1 1 2 3 2 3 2 2 2 1 1 1 3 3 3 2 2 2 2 2 2 3 3 5 5 3 5 6 7 8 8 8 9 10 10 10 11 11 11
1 1 1 1 1 1 1 1 2 2 2 3 3 2 2 2 2 3 4 4 3 2 2 2 3 3 4 4 4 1 4 5 6 6 7 7 8 9 10 10 10 11 12
1 1 1 1 1 1 2 2 2 2 2 2 3 3 3 3 3 3 4 4 4 3 3 4 3 3 4 3 2 1 3 4 4 5 5 6 6 7 8 8 9 10 10
2 1 2 2 2 2 2 2 2 2 2 2 3 3 4 4 3 3 4 4 5 4 4 4 3 3 3 3 1 3 4 4 4 4 5 5 6 6 7 8 8 8 9
2 2 3 2 2 2 3 3 2 3 2 3 3 3 4 3 3 4 4 4 5 5 4 3 4 3 3 3 2 5 5 5 6 6 6 6 6 7 8 9 9 9 8
3 3 3 3 2 3 3 4 3 3 3 3 3 3 4 4 3 4 4 4 4 5 6 4 4 4 3 4 3 5 6 6 9 8 7 6 6 6 7 8 9 9 9
4 4 3 3 3 3 3 4 4 4 4 4 4 3 3 4 4 4 4 4 4 4 6 6 5 4 4 5 3 5 6 6 6 9 8 7 7 7 7 7 8 8 9
4 4 4 4 4 3 4 4 5 5 5 5 4 4 4 3 3 4 4 4 4 5 6 7 5 4 4 5 5 6 6 5 5 5 7 8 8 8 8 9 9 9 9
5 4 4 4 4 4 4 4 5 5 5 5 5 4 4 4 4 3 4 4 4 4 5 6 6 4 4 4 4 5 6 5 6 6 9 10 9 9 9 9 9 9 9
5 4 4 4 5 4 4 4 5 5 5 5 5 4 4 4 4 4 4 4 5 5 5 6 6 5 4 4 4 4 5 4 5 5 5 6 8 11 11 10 10 9 9
5 4 4 4 4 4 3 4 5 5 5 5 5 5 4 3 3 4 4 4 5 5 5 5 6 5 5 4 4 5 5 5 6 5 5 6 6 7 8 11 11 9 8
4 4 4 4 4 3 1 2 4 4 4 5 5 4 5 4 3 4 5 5 6 6 6 6 6 6 6 6 5 6 6 6 6 4 5 6 6 6 6 6 6 8 9
4 4 4 4 3 1 1 1 4 5 5 4 4 4 4 3 4 4 5 7 7 7 8 7 7 7 7 6 7 8 6 7 7 6 6 7 6 6 5 3 7 8 9
4 4 4 3 3 2 1 2 5 6 5 5 5 4 4 4 3 3 5 5 5 6 6 7 6 7 7 6 6 8 8 8 7 6 6 7 6 6 5 3 7 9 9
4 5 4 4 4 3 1 2 5 4 4 5 5 4 4 4 2 4 5 6 6 6 6 6 7 7 7 7 7 7 7 7 7 6 5 6 6 6 5 5 5 9 10
4 4 4 4 4 3 2 2 5 4 4 4 4 4 3 3 3 4 6 6 7 7 7 7 7 8 8 8 8 7 7 7 7 6 4 5 6 5 6 4 4 4 7
Wind_Direction
42 43 46 19 1 10 59 249 222 182 197 199 214 217 223 236 242 233 187 175 192 205 211 215 213 211 210 209 206 204 203 203 204 207 210 209 207 207 209 212 212 212 214
30 3 32 21 7 358 5 319 327 202 231 183 218 239 247 235 227 239 225 188 189 198 211 217 217 213 213 210 209 210 209 209 210 213 213 213 213 211 210 212 215 215 215
44 358 1 352 359 357 352 331 21 343 231 209 211 220 219 243 220 222 226 215 197 186 196 209 214 211 209 211 211 213 214 213 214 217 217 217 215 215 215 215 218 219 218
28 337 348 355 355 335 353 346 336 2 52 12 278 257 210 196 209 213 206 200 214 206 185 192 204 209 211 211 211 212 213 215 219 221 220 218 217 218 219 218 218 220 221
39 324 350 0 329 343 337 332 35 342 85 167 194 197 232 222 212 199 207 204 194 221 204 175 188 196 200 204 210 212 215 215 217 219 219 219 219 221 222 221 221 221 222
55 313 291 345 315 335 339 7 7 358 293 232 215 156 205 192 195 183 225 198 200 211 212 199 194 189 191 200 206 210 212 212 212 215 221 223 222 223 224 225 226 225 225
150 296 322 7 316 340 338 334 322 256 201 220 199 169 171 177 168 182 206 211 199 203 205 208 223 220 186 187 196 203 208 212 212 214 220 225 227 226 226 226 225 225 227
263 197 334 314 342 332 342 341 330 329 0 14 299 269 197 171 182 172 191 201 223 223 220 215 215 222 233 197 180 193 210 219 223 223 225 229 230 231 231 227 223 224 228
274 350 359 333 346 334 19 358 340 344 344 352 343 307 295 299 94 153 178 195 228 252 247 233 228 222 226 220 206 188 204 217 226 230 232 233 233 234 237 234 228 227 230
197 338 340 351 346 4 17 334 25 331 319 317 291 300 313 330 296 246 204 195 204 241 263 261 247 227 223 226 217 198 200 218 227 235 240 241 237 236 238 236 231 230 232
180 236 284 344 355 8 16 356 358 332 323 315 306 287 267 253 263 275 273 272 250 249 244 247 259 254 236 235 234 215 197 214 227 235 239 242 241 240 240 239 236 235 235
186 196 215 272 297 359 2 329 324 321 327 321 308 302 289 285 279 275 272 269 275 273 266 261 260 259 250 248 243 181 208 217 227 234 239 240 243 245 245 243 240 241 240
198 191 228 243 283 304 302 309 301 320 314 305 291 295 296 285 287 281 279 280 279 274 267 252 251 254 255 259 255 204 208 208 225 235 240 242 245 247 244 241 243 245 244
218 195 216 221 252 277 284 288 285 281 292 290 295 299 291 287 285 280 278 283 280 271 256 262 267 261 261 260 251 238 235 194 214 233 241 244 246 247 244 240 241 245 247
211 200 218 223 239 255 267 268 278 282 282 284 290 284 282 282 279 280 276 277 281 283 279 258 259 263 260 254 233 255 256 213 223 233 235 241 243 244 244 242 241 244 247
209 210 221 232 241 247 252 258 253 262 271 279 288 296 288 288 288 279 276 275 275 279 284 284 277 272 276 270 233 263 260 220 221 222 224 233 240 246 246 243 242 244 245
208 213 221 233 240 248 254 257 264 266 271 277 280 276 272 286 286 283 281 281 281 277 275 286 286 284 274 277 274 269 261 253 238 207 212 227 238 247 250 248 246 246 246
218 215 225 236 247 253 259 261 263 260 262 268 270 270 267 265 275 286 291 285 283 280 275 282 284 280 272 266 270 271 268 260 264 203 205 219 232 239 243 246 246 245 243
220 223 227 239 251 257 261 264 266 260 258 262 266 264 264 265 274 283 284 286 286 282 278 278 282 281 274 271 273 273 273 269 263 228 210 215 224 231 235 239 242 239 239
218 226 230 238 247 253 262 268 265 258 255 259 262 263 262 259 267 276 275 281 287 287 282 279 281 279 275 275 271 274 273 266 270 266 252 241 223 220 225 229 233 234 235
219 223 231 233 243 246 263 271 268 254 252 255 256 256 258 257 282 286 290 295 292 286 286 282 281 284 281 286 282 282 279 278 270 269 268 257 239 241 231 222 221 224 229
225 229 231 234 244 261 8 316 285 263 255 256 257 259 257 237 238 244 262 278 284 281 287 287 280 283 286 285 290 283 283 282 282 276 276 274 264 259 254 245 203 203 217
220 231 236 241 247 259 34 301 286 268 261 266 269 272 278 278 262 269 249 238 251 251 259 271 280 284 286 289 288 282 278 279 283 288 282 277 269 265 260 236 169 191 207
222 225 231 235 241 237 183 260 272 253 259 265 269 270 273 283 287 290 278 275 273 269 262 265 276 278 282 288 281 275 278 272 270 263 261 271 274 271 272 251 175 190 204
230 233 231 230 236 240 206 261 267 254 253 257 262 264 263 260 289 290 272 274 279 280 255 247 260 265 271 272 275 273 273 274 277 279 262 268 275 278 271 256 209 196 206
227 237 234 231 236 249 195 244 272 259 261 261 256 248 226 250 278 271 266 272 276 284 289 281 261 251 252 243 237 253 265 269 275 279 272 267 273 282 276 259 241 222 222
Height
1538 1537 1536 1537 1537 1537 1537 1537 1537 1537 1537 1538 1538 1539 1539 1540 1541 1541 1541 1541 1542 1542 1543 1544 1544 1545 1546 1547 1548 1549 1550 1551 1552 1553 1554 1554 1555 1556 1557 1558 1559 1560 1561
1538 1538 1537 1537 1538 1537 1537 1536 1536 1536 1537 1537 1537 1538 1538 1539 1539 1540 1540 1540 1540 1541 1541 1542 1543 1543 1544 1545 1546 1547 1548 1549 1550 1551 1552 1553 1554 1555 1555 1556 1557 1558 1559
1538 1538 1538 1537 1538 1537 1536 1536 1536 1536 1536 1536 1537 1537 1537 1538 1538 1538 1539 1539 1539 1539 1539 1540 1541 1542 1542 1543 1544 1545 1546 1547 1548 1549 1550 1551 1551 1552 1553 1554 1555 1556 1556
1538 1538 1538 1538 1537 1537 1537 1536 1536 1535 1535 1535 1536 1536 1536 1536 1537 1537 1538 1538 1538 1538 1538 1538 1539 1540 1541 1541 1542 1543 1544 1545 1546 1546 1547 1548 1549 1550 1551 1551 1552 1553 1554
1538 1539 1539 1538 1538 1537 1537 1536 1535 1535 1535 1534 1534 1535 1535 1536 1536 1536 1536 1537 1537 1537 1537 1536 1537 1538 1538 1539 1540 1541 1541 1542 1543 1543 1544 1545 1546 1547 1548 1549 1550 1551 1551
1538 1539 1539 1538 1538 1538 1537 1536 1535 1534 1534 1534 1534 1534 1534 1535 1535 1535 1535 1535 1535 1535 1536 1536 1536 1536 1536 1537 1538 1539 1539 1540 1540 1541 1542 1543 1543 1544 1545 1546 1547 1548 1548
1538 1538 1539 1538 1537 1537 1536 1536 1535 1535 1535 1534 1534 1534 1534 1534 1534 1534 1534 1534 1534 1534 1534 1534 1535 1535 1535 1535 1536 1536 1537 1538 1538 1538 1539 1540 1541 1541 1542 1543 1544 1545 1545
1537 1537 1537 1538 1537 1537 1536 1535 1535 1535 1535 1534 1534 1534 1534 1535 1534 1533 1533 1533 1533 1533 1533 1534 1533 1533 1534 1534 1534 1534 1535 1535 1536 1536 1536 1537 1538 1539 1540 1540 1541 1541 1542
1537 1536 1536 1537 1536 1537 1536 1535 1534 1534 1535 1534 1534 1534 1534 1533 1533 1533 1532 1532 1532 1532 1532 1532 1532 1532 1532 1532 1532 1532 1533 1533 1533 1534 1534 1535 1535 1536 1536 1537 1538 1538 1539
1536 1536 1535 1535 1535 1536 1535 1535 1534 1534 1534 1534 1534 1533 1533 1533 1532 1532 1532 1532 1531 1531 1530 1531 1530 1530 1530 1530 1530 1530 1530 1530 1531 1531 1531 1532 1532 1533 1533 1534 1534 1535 1535
1535 1535 1535 1535 1534 1535 1534 1534 1533 1533 1533 1533 1533 1533 1532 1532 1532 1531 1530 1531 1530 1530 1529 1529 1528 1528 1528 1528 1527 1527 1527 1527 1528 1528 1528 1529 1529 1530 1530 1530 1531 1531 1532
1534 1534 1534 1534 1534 1534 1533 1533 1532 1532 1532 1531 1531 1531 1531 1531 1530 1530 1529 1528 1528 1528 1527 1527 1527 1526 1526 1526 1525 1524 1524 1524 1524 1525 1525 1525 1526 1526 1526 1526 1527 1528 1528
1533 1532 1533 1532 1532 1532 1531 1531 1531 1530 1530 1529 1529 1529 1529 1529 1529 1528 1528 1527 1526 1526 1525 1525 1524 1524 1524 1523 1522 1521 1521 1521 1521 1521 1522 1522 1522 1522 1523 1523 1524 1524 1524
1532 1531 1531 1530 1530 1530 1530 1529 1529 1529 1528 1527 1527 1526 1527 1527 1527 1526 1526 1525 1524 1523 1523 1523 1522 1522 1521 1520 1519 1518 1518 1518 1518 1518 1518 1518 1518 1519 1519 1520 1520 1520 1520
1529 1529 1529 1529 1528 1528 1528 1527 1527 1526 1526 1526 1526 1525 1524 1525 1524 1524 1523 1523 1523 1521 1520 1520 1520 1519 1518 1517 1516 1515 1515 1514 1514 1514 1514 1514 1514 1515 1515 1515 1516 1516 1516
1527 1527 1527 1526 1526 1526 1525 1525 1525 1524 1523 1523 1522 1522 1521 1522 1521 1521 1521 1520 1520 1519 1518 1517 1517 1516 1515 1515 1513 1512 1512 1511 1510 1510 1510 1510 1510 1510 1511 1511 1511 1511 1511
1524 1524 1524 1524 1524 1523 1523 1522 1522 1521 1520 1520 1520 1519 1519 1518 1518 1518 1518 1517 1517 1516 1515 1515 1514 1513 1512 1511 1510 1509 1509 1508 1507 1507 1506 1506 1506 1506 1506 1506 1506 1506 1507
1522 1522 1522 1522 1521 1521 1520 1519 1518 1518 1517 1517 1517 1516 1516 1516 1515 1515 1515 1515 1514 1513 1513 1511 1511 1510 1509 1508 1507 1506 1506 1505 1504 1503 1502 1502 1502 1502 1502 1502 1502 1502 1502
1519 1519 1519 1518 1518 1518 1517 1516 1515 1515 1514 1514 1514 1513 1513 1513 1513 1513 1512 1512 1511 1511 1510 1509 1508 1507 1506 1505 1504 1503 1502 1501 1501 1500 1499 1498 1498 1498 1497 1497 1497 1497 1497
1516 1516 1516 1515 1515 1514 1514 1513 1512 1512 1511 1511 1510 1510 1510 1510 1509 1509 1509 1508 1508 1507 1507 1506 1505 1504 1503 1502 1501 1500 1499 1498 1498 1497 1495 1494 1494 1493 1493 1492 1492 1492 1492
1513 1513 1513 1513 1512 1512 1510 1509 1508 1508 1508 1507 1507 1507 1507 1506 1506 1505 1506 1505 1505 1504 1504 1503 1502 1501 1500 1499 1498 1497 1496 1495 1493 1493 1492 1491 1490 1490 1489 1488 1488 1488 1488
1510 1510 1509 1509 1509 1508 1507 1505 1505 1505 1504 1504 1503 1503 1503 1502 1502 1502 1501 1501 1501 1500 1500 1499 1498 1497 1496 1495 1494 1494 1493 1492 1490 1490 1488 1487 1487 1486 1486 1485 1484 1484 1484
1507 1506 1506 1506 1505 1505 1504 1503 1502 1502 1501 1501 1500 1499 1499 1500 1499 1498 1497 1497 1497 1497 1496 1496 1495 1493 1493 1492 1491 1490 1489 1487 1486 1485 1485 1483 1483 1482 1482 1481 1480 1479 1479
1504 1503 1503 1503 1502 1501 1500 1500 1499 1499 1498 1497 1497 1496 1496 1496 1495 1495 1494 1494 1494 1493 1493 1492 1491 1490 1489 1487 1486 1486 1485 1484 1482 1481 1481 1480 1479 1478 1478 1477 1476 1475 1475
1501 1501 1500 1499 1499 1498 1497 1496 1496 1496 1495 1494 1494 1493 1493 1493 1492 1492 1491 1491 1490 1490 1489 1488 1487 1485 1484 1483 1483 1482 1482 1481 1479 1478 1477 1476 1475 1474 1473 1472 1472 1471 1471
1498 1498 1497 1497 1496 1495 1494 1494 1493 1493 1492 1492 1491 1490 1490 1489 1489 1488 1488 1487 1487 1486 1485 1484 1483 1481 1480 1479 1479 1478 1477 1476 1475 1474 1473 1472 1471 1471 1469 1469 1468 1467 1467